Time,TemperatureF,DewpointF,PressureIn,WindDirection,WindDirectionDegrees,WindSpeedMPH,WindSpeedGustMPH,Humidity,HourlyPrecipIn,Conditions,Clouds,dailyrainin,SoftwareType,DateUTC
2013-11-23 00:02:00,37.5,35.4,30.41,NNE,19,5.8,5.8,92,0.00,RA,,0.00,WeatherDisplay:10.37,2013-11-23 06:02:00,
2013-11-23 00:07:00,37.4,35.3,30.41,North,355,15.0,15.0,92,0.00,RA,,0.00,WeatherDisplay:10.37,2013-11-23 06:07:00,
2013-11-23 00:12:00,37.3,35.2,30.41,NNE,15,9.2,9.2,92,0.00,CLR,,0.00,WeatherDisplay:10.37,2013-11-23 06:12:00,
2013-11-23 00:17:00,37.5,35.4,30.41,North,9,11.5,11.5,92,0.00,CLR,,0.00,WeatherDisplay:10.37,2013-11-23 06:17:00,
2013-11-23 00:22:00,37.5,35.4,30.41,North,5,12.7,12.7,92,0.00,CLR,,0.00,WeatherDisplay:10.37,2013-11-23 06:22:00,
2013-11-23 00:27:00,37.4,35.3,30.41,NNW,347,11.5,11.5,92,0.00,CLR,,0.00,WeatherDisplay:10.37,2013-11-23 06:27:00,
2013-11-23 00:32:00,37.5,35.4,30.41,North,355,13.8,13.8,92,0.00,CLR,,0.00,WeatherDisplay:10.37,2013-11-23 06:32:00,
2013-11-23 00:37:00,37.6,35.5,30.41,North,5,8.0,8.0,92,0.00,CLR,,0.00,WeatherDisplay:10.37,2013-11-23 06:37:00,
2013-11-23 00:42:00,37.6,35.5,30.40,North,351,11.5,11.5,92,0.00,CLR,,0.00,WeatherDisplay:10.37,2013-11-23 06:42:00,
2013-11-23 00:47:00,37.7,35.6,30.41,NNW,336,10.4,10.4,92,0.01,RA,,0.01,WeatherDisplay:10.37,2013-11-23 06:47:00,
2013-11-23 00:52:00,37.7,35.6,30.41,North,360,11.5,11.5,92,0.01,RA,,0.01,WeatherDisplay:10.37,2013-11-23 06:52:00,
2013-11-23 00:57:00,37.8,35.7,30.40,North,9,15.0,15.0,92,0.01,CLR,,0.01,WeatherDisplay:10.37,2013-11-23 06:57:00,
2013-11-23 01:02:00,37.8,35.7,30.41,North,5,11.5,11.5,92,0.01,CLR,,0.01,WeatherDisplay:10.37,2013-11-23 07:02:00,
2013-11-23 01:07:00,37.7,35.6,30.40,NNE,14,10.4,10.4,92,0.01,CLR,,0.01,WeatherDisplay:10.37,2013-11-23 07:07:00,
2013-11-23 01:12:00,37.8,35.7,30.40,North,355,11.5,11.5,92,0.01,CLR,,0.01,WeatherDisplay:10.37,2013-11-23 07:12:00,
2013-11-23 01:17:00,37.6,35.5,30.40,North,355,12.7,12.7,92,0.01,CLR,,0.01,WeatherDisplay:10.37,2013-11-23 07:17:00,
2013-11-23 01:22:00,37.5,35.4,30.40,North,9,11.0,11.0,92,0.01,CLR,,0.01,WeatherDisplay:10.37,2013-11-23 07:22:00,
2013-11-23 01:27:00,37.5,35.4,30.40,NNW,344,13.8,13.8,92,0.02,RA,,0.02,WeatherDisplay:10.37,2013-11-23 07:27:00,
2013-11-23 01:32:00,37.6,35.5,30.40,North,355,10.4,10.4,92,0.02,RA,,0.02,WeatherDisplay:10.37,2013-11-23 07:32:00,
2013-11-23 01:37:00,37.6,35.5,30.40,North,355,8.1,8.1,92,0.02,CLR,,0.02,WeatherDisplay:10.37,2013-11-23 07:37:00,
2013-11-23 01:42:00,37.7,35.6,30.41,North,355,9.2,9.2,92,0.02,CLR,,0.02,WeatherDisplay:10.37,2013-11-23 07:42:00,
2013-11-23 01:47:00,37.9,35.8,30.41,NNW,348,12.7,12.7,92,0.01,CLR,,0.02,WeatherDisplay:10.37,2013-11-23 07:47:00,
2013-11-23 01:52:00,38.2,36.1,30.41,North,355,11.5,11.5,92,0.01,CLR,,0.02,WeatherDisplay:10.37,2013-11-23 07:52:00,
2013-11-23 01:57:00,37.9,35.8,30.41,North,355,12.7,12.7,92,0.02,RA,,0.03,WeatherDisplay:10.37,2013-11-23 07:57:00,
2013-11-23 02:02:00,37.6,35.5,30.41,North,360,15.0,15.0,92,0.02,RA,,0.03,WeatherDisplay:10.37,2013-11-23 08:02:00,
2013-11-23 02:07:00,37.5,35.4,30.41,North,5,15.0,15.0,92,0.02,CLR,,0.03,WeatherDisplay:10.37,2013-11-23 08:07:00,
2013-11-23 02:12:00,37.6,35.5,30.41,North,5,10.4,10.4,92,0.02,CLR,,0.03,WeatherDisplay:10.37,2013-11-23 08:12:00,
2013-11-23 02:17:00,37.6,35.5,30.41,NNE,19,15.0,15.0,92,0.02,CLR,,0.03,WeatherDisplay:10.37,2013-11-23 08:17:00,
2013-11-23 02:22:00,37.6,35.5,30.41,North,5,12.7,12.7,92,0.02,CLR,,0.03,WeatherDisplay:10.37,2013-11-23 08:22:00,
2013-11-23 02:27:00,37.7,35.6,30.41,North,355,15.0,15.0,92,0.02,RA,,0.05,WeatherDisplay:10.37,2013-11-23 08:27:00,
2013-11-23 02:32:00,37.6,35.5,30.41,North,5,11.5,11.5,92,0.04,RA,,0.06,WeatherDisplay:10.37,2013-11-23 08:32:00,
2013-11-23 02:37:00,37.7,35.6,30.41,NNW,346,12.7,12.7,92,0.06,RA,,0.09,WeatherDisplay:10.37,2013-11-23 08:37:00,
2013-11-23 02:42:00,37.7,35.6,30.41,North,10,10.4,10.4,92,0.08,RA,,0.10,WeatherDisplay:10.37,2013-11-23 08:42:00,
2013-11-23 02:47:00,37.5,35.4,30.41,North,355,15.0,15.0,92,0.08,RA,,0.10,WeatherDisplay:10.37,2013-11-23 08:47:00,
2013-11-23 02:52:00,37.2,35.1,30.41,North,350,13.8,13.8,92,0.08,CLR,,0.11,WeatherDisplay:10.37,2013-11-23 08:52:00,
2013-11-23 02:57:00,37.2,35.1,30.41,North,5,11.5,11.5,92,0.08,RA,,0.11,WeatherDisplay:10.37,2013-11-23 08:57:00,
2013-11-23 03:02:00,37.2,35.1,30.41,NNW,348,12.0,12.0,92,0.08,CLR,,0.11,WeatherDisplay:10.37,2013-11-23 09:02:00,
2013-11-23 03:07:00,37.1,35.0,30.41,NNE,15,12.7,12.7,92,0.08,CLR,,0.11,WeatherDisplay:10.37,2013-11-23 09:07:00,
2013-11-23 03:12:00,37.1,35.0,30.41,North,5,11.5,11.5,92,0.08,CLR,,0.11,WeatherDisplay:10.37,2013-11-23 09:12:00,
2013-11-23 03:17:00,37.1,35.0,30.41,NNE,19,11.5,11.5,92,0.08,CLR,,0.11,WeatherDisplay:10.37,2013-11-23 09:17:00,
2013-11-23 03:22:00,37.0,34.9,30.41,North,11,15.0,15.0,92,0.08,CLR,,0.11,WeatherDisplay:10.37,2013-11-23 09:22:00,
2013-11-23 03:27:00,37.2,35.1,30.41,NNW,348,10.4,10.4,92,0.07,RA,,0.12,WeatherDisplay:10.37,2013-11-23 09:27:00,
2013-11-23 03:32:00,37.2,35.1,30.41,NNW,346,11.5,11.5,92,0.06,RA,,0.12,WeatherDisplay:10.37,2013-11-23 09:32:00,
2013-11-23 03:37:00,37.3,35.2,30.41,North,5,13.8,13.8,92,0.03,CLR,,0.12,WeatherDisplay:10.37,2013-11-23 09:37:00,
2013-11-23 03:42:00,37.1,35.0,30.41,North,10,17.3,17.3,92,0.02,CLR,,0.12,WeatherDisplay:10.37,2013-11-23 09:42:00,
2013-11-23 03:47:00,37.0,34.9,30.41,North,355,11.5,11.5,92,0.02,CLR,,0.12,WeatherDisplay:10.37,2013-11-23 09:47:00,
2013-11-23 03:52:00,37.0,34.9,30.41,North,5,15.0,15.0,92,0.01,CLR,,0.12,WeatherDisplay:10.37,2013-11-23 09:52:00,
2013-11-23 03:57:00,37.0,34.9,30.41,North,5,7.0,7.0,92,0.01,CLR,,0.12,WeatherDisplay:10.37,2013-11-23 09:57:00,
2013-11-23 04:02:00,37.1,35.0,30.41,North,360,12.7,12.7,92,0.01,CLR,,0.12,WeatherDisplay:10.37,2013-11-23 10:02:00,
2013-11-23 04:07:00,37.1,35.0,30.41,North,360,11.5,11.5,92,0.01,CLR,,0.12,WeatherDisplay:10.37,2013-11-23 10:07:00,
2013-11-23 04:12:00,37.0,34.9,30.41,North,351,15.0,15.0,92,0.01,CLR,,0.12,WeatherDisplay:10.37,2013-11-23 10:12:00,
2013-11-23 04:17:00,37.0,34.9,30.41,NNE,16,12.7,12.7,92,0.01,CLR,,0.12,WeatherDisplay:10.37,2013-11-23 10:17:00,
2013-11-23 04:22:00,37.1,35.0,30.41,North,9,10.4,10.4,92,0.01,CLR,,0.12,WeatherDisplay:10.37,2013-11-23 10:22:00,
2013-11-23 04:27:00,37.2,35.1,30.41,North,355,11.5,11.5,92,0.00,CLR,,0.12,WeatherDisplay:10.37,2013-11-23 10:27:00,
2013-11-23 04:32:00,37.4,35.3,30.42,North,355,12.7,12.7,92,0.00,CLR,,0.12,WeatherDisplay:10.37,2013-11-23 10:32:00,
2013-11-23 04:37:00,37.3,35.2,30.42,North,9,16.1,16.1,92,0.00,CLR,,0.12,WeatherDisplay:10.37,2013-11-23 10:37:00,
2013-11-23 04:42:00,37.1,35.0,30.42,North,360,17.3,17.3,92,0.00,CLR,,0.12,WeatherDisplay:10.37,2013-11-23 10:42:00,
2013-11-23 04:47:00,37.1,35.0,30.42,North,350,13.8,13.8,92,0.00,CLR,,0.12,WeatherDisplay:10.37,2013-11-23 10:47:00,
2013-11-23 04:53:00,37.1,35.0,30.42,North,5,12.7,12.7,92,0.00,CLR,,0.12,WeatherDisplay:10.37,2013-11-23 10:53:00,
2013-11-23 04:58:00,37.1,35.0,30.42,North,355,12.0,12.0,92,0.00,CLR,,0.12,WeatherDisplay:10.37,2013-11-23 10:58:00,
2013-11-23 05:03:00,37.0,34.9,30.42,North,5,15.0,15.0,92,0.00,CLR,,0.12,WeatherDisplay:10.37,2013-11-23 11:03:00,
2013-11-23 05:08:00,37.1,35.0,30.42,North,360,11.5,11.5,92,0.00,CLR,,0.12,WeatherDisplay:10.37,2013-11-23 11:08:00,
2013-11-23 05:13:00,37.3,35.2,30.42,NNW,345,11.5,11.5,92,0.00,CLR,,0.12,WeatherDisplay:10.37,2013-11-23 11:13:00,
2013-11-23 05:18:00,37.5,35.4,30.42,North,5,16.1,16.1,92,0.00,CLR,,0.12,WeatherDisplay:10.37,2013-11-23 11:18:00,
2013-11-23 05:23:00,37.5,35.4,30.42,North,355,11.0,11.0,92,0.00,CLR,,0.12,WeatherDisplay:10.37,2013-11-23 11:23:00,
2013-11-23 05:28:00,37.4,35.3,30.43,North,360,12.0,12.0,92,0.00,CLR,,0.12,WeatherDisplay:10.37,2013-11-23 11:28:00,
2013-11-23 05:33:00,37.5,35.4,30.43,North,11,13.8,13.8,92,0.01,RA,,0.13,WeatherDisplay:10.37,2013-11-23 11:33:00,
2013-11-23 05:38:00,37.3,35.2,30.43,NNW,345,12.7,12.7,92,0.01,RA,,0.13,WeatherDisplay:10.37,2013-11-23 11:38:00,
2013-11-23 05:43:00,37.2,35.1,30.43,NNW,340,11.5,11.5,92,0.01,CLR,,0.13,WeatherDisplay:10.37,2013-11-23 11:43:00,
2013-11-23 05:48:00,37.1,35.0,30.43,NNE,12,9.2,9.2,92,0.01,CLR,,0.13,WeatherDisplay:10.37,2013-11-23 11:48:00,
2013-11-23 05:53:00,37.1,35.0,30.43,North,360,10.4,10.4,92,0.01,CLR,,0.13,WeatherDisplay:10.37,2013-11-23 11:53:00,
2013-11-23 05:58:00,37.3,35.2,30.43,North,5,6.9,6.9,92,0.01,CLR,,0.13,WeatherDisplay:10.37,2013-11-23 11:58:00,
2013-11-23 06:03:00,37.4,35.3,30.43,North,355,12.0,12.0,92,0.01,CLR,,0.13,WeatherDisplay:10.37,2013-11-23 12:03:00,
2013-11-23 06:08:00,37.4,35.3,30.43,NNE,30,13.8,13.8,92,0.01,CLR,,0.13,WeatherDisplay:10.37,2013-11-23 12:08:00,
2013-11-23 06:13:00,37.3,35.2,30.43,NNE,18,13.8,13.8,92,0.01,CLR,,0.13,WeatherDisplay:10.37,2013-11-23 12:13:00,
2013-11-23 06:18:00,37.1,35.0,30.43,North,5,17.3,17.3,92,0.01,CLR,,0.13,WeatherDisplay:10.37,2013-11-23 12:18:00,
2013-11-23 06:23:00,37.1,35.0,30.43,North,351,11.0,11.0,92,0.01,CLR,,0.13,WeatherDisplay:10.37,2013-11-23 12:23:00,
2013-11-23 06:28:00,37.1,35.0,30.43,North,355,12.7,12.7,92,0.01,CLR,,0.13,WeatherDisplay:10.37,2013-11-23 12:28:00,
2013-11-23 06:33:00,37.1,35.0,30.44,North,355,10.4,10.4,92,0.00,CLR,,0.13,WeatherDisplay:10.37,2013-11-23 12:33:00,
2013-11-23 06:38:00,37.2,35.1,30.44,North,350,9.2,9.2,92,0.00,CLR,,0.13,WeatherDisplay:10.37,2013-11-23 12:38:00,
2013-11-23 06:43:00,37.2,35.1,30.44,NNE,19,12.7,12.7,92,0.00,CLR,,0.13,WeatherDisplay:10.37,2013-11-23 12:43:00,
2013-11-23 06:48:00,37.2,35.1,30.44,North,9,10.4,10.4,92,0.00,CLR,,0.13,WeatherDisplay:10.37,2013-11-23 12:48:00,
2013-11-23 06:53:00,37.1,35.0,30.44,NNE,17,12.7,12.7,92,0.01,RA,,0.14,WeatherDisplay:10.37,2013-11-23 12:53:00,
2013-11-23 06:58:00,36.9,34.8,30.45,NNE,19,13.8,13.8,92,0.02,RA,,0.15,WeatherDisplay:10.37,2013-11-23 12:58:00,
2013-11-23 07:03:00,36.9,34.8,30.45,NNE,21,18.4,18.4,92,0.02,RA,,0.15,WeatherDisplay:10.37,2013-11-23 13:03:00,
2013-11-23 07:08:00,37.0,34.9,30.45,NNW,347,11.5,11.5,92,0.02,CLR,,0.15,WeatherDisplay:10.37,2013-11-23 13:08:00,
2013-11-23 07:13:00,37.1,35.0,30.46,North,9,9.2,9.2,92,0.02,CLR,,0.15,WeatherDisplay:10.37,2013-11-23 13:13:00,
2013-11-23 07:18:00,37.2,35.1,30.46,North,9,12.7,12.7,92,0.03,RA,,0.16,WeatherDisplay:10.37,2013-11-23 13:18:00,
2013-11-23 07:23:00,37.0,34.9,30.46,NNE,29,17.3,17.3,92,0.03,RA,,0.16,WeatherDisplay:10.37,2013-11-23 13:23:00,
2013-11-23 07:28:00,37.1,35.0,30.47,NNE,13,13.0,13.0,92,0.03,CLR,,0.16,WeatherDisplay:10.37,2013-11-23 13:28:00,
2013-11-23 07:33:00,37.1,35.0,30.47,North,10,10.4,10.4,92,0.03,CLR,,0.16,WeatherDisplay:10.37,2013-11-23 13:33:00,
2013-11-23 07:38:00,37.1,35.0,30.47,NNW,342,13.8,13.8,92,0.03,CLR,,0.16,WeatherDisplay:10.37,2013-11-23 13:38:00,
2013-11-23 07:43:00,37.2,35.1,30.47,North,360,13.8,13.8,92,0.03,CLR,,0.16,WeatherDisplay:10.37,2013-11-23 13:43:00,
2013-11-23 07:48:00,37.3,35.2,30.48,NNE,13,13.8,13.8,92,0.03,CLR,,0.16,WeatherDisplay:10.37,2013-11-23 13:48:00,
2013-11-23 07:53:00,37.4,35.3,30.48,North,360,17.3,17.3,92,0.02,CLR,,0.16,WeatherDisplay:10.37,2013-11-23 13:53:00,
2013-11-23 07:58:00,37.3,35.2,30.48,North,5,12.7,12.7,92,0.01,CLR,,0.16,WeatherDisplay:10.37,2013-11-23 13:58:00,
2013-11-23 08:03:00,37.4,35.3,30.48,North,360,9.2,9.2,92,0.01,CLR,,0.16,WeatherDisplay:10.37,2013-11-23 14:03:00,
2013-11-23 08:08:00,37.4,35.3,30.48,North,5,10.4,10.4,92,0.02,RA,,0.17,WeatherDisplay:10.37,2013-11-23 14:08:00,
2013-11-23 08:13:00,37.6,35.5,30.48,North,360,9.2,9.2,92,0.02,RA,,0.17,WeatherDisplay:10.37,2013-11-23 14:13:00,
2013-11-23 08:18:00,37.5,35.4,30.48,North,355,11.5,11.5,92,0.01,CLR,,0.17,WeatherDisplay:10.37,2013-11-23 14:18:00,
2013-11-23 08:23:00,37.6,35.5,30.49,North,355,11.5,11.5,92,0.01,CLR,,0.17,WeatherDisplay:10.37,2013-11-23 14:23:00,
2013-11-23 08:28:00,37.5,35.4,30.49,North,5,12.7,12.7,92,0.01,CLR,,0.17,WeatherDisplay:10.37,2013-11-23 14:28:00,
2013-11-23 08:33:00,37.5,35.4,30.49,NNE,16,19.6,19.6,92,0.01,CLR,,0.17,WeatherDisplay:10.37,2013-11-23 14:33:00,
2013-11-23 08:38:00,37.6,35.5,30.49,NNW,344,16.1,16.1,92,0.01,CLR,,0.17,WeatherDisplay:10.37,2013-11-23 14:38:00,
2013-11-23 08:43:00,37.4,35.3,30.49,NNE,17,12.7,12.7,92,0.01,CLR,,0.17,WeatherDisplay:10.37,2013-11-23 14:43:00,
2013-11-23 08:48:00,37.4,35.3,30.49,North,11,11.5,11.5,92,0.01,CLR,,0.17,WeatherDisplay:10.37,2013-11-23 14:48:00,
2013-11-23 08:53:00,37.4,35.3,30.50,North,360,13.8,13.8,92,0.01,CLR,,0.17,WeatherDisplay:10.37,2013-11-23 14:53:00,
2013-11-23 08:58:00,37.5,35.4,30.50,North,5,12.7,12.7,92,0.01,CLR,,0.17,WeatherDisplay:10.37,2013-11-23 14:58:00,
2013-11-23 09:03:00,37.5,35.4,30.50,North,11,13.8,13.8,92,0.01,CLR,,0.17,WeatherDisplay:10.37,2013-11-23 15:03:00,
2013-11-23 09:08:00,37.6,35.5,30.50,North,351,11.5,11.5,92,0.00,CLR,,0.17,WeatherDisplay:10.37,2013-11-23 15:08:00,
2013-11-23 09:13:00,37.7,35.6,30.50,NNE,18,18.4,18.4,92,0.00,CLR,,0.17,WeatherDisplay:10.37,2013-11-23 15:13:00,
2013-11-23 09:19:00,37.6,35.5,30.50,North,355,11.5,11.5,92,0.00,CLR,,0.17,WeatherDisplay:10.37,2013-11-23 15:19:00,
2013-11-23 09:24:00,37.8,35.7,30.50,NNE,15,13.8,13.8,92,0.00,CLR,,0.17,WeatherDisplay:10.37,2013-11-23 15:24:00,
2013-11-23 09:29:00,37.7,35.6,30.51,NNW,348,15.0,15.0,92,0.00,CLR,,0.17,WeatherDisplay:10.37,2013-11-23 15:29:00,
2013-11-23 09:34:00,37.7,35.6,30.51,NNE,28,11.5,11.5,92,0.00,CLR,,0.17,WeatherDisplay:10.37,2013-11-23 15:34:00,
2013-11-23 09:39:00,37.6,35.5,30.51,North,9,11.5,11.5,92,0.00,CLR,,0.17,WeatherDisplay:10.37,2013-11-23 15:39:00,
2013-11-23 09:44:00,37.6,35.5,30.51,North,5,17.0,17.0,92,0.00,CLR,,0.17,WeatherDisplay:10.37,2013-11-23 15:44:00,
2013-11-23 09:49:00,37.8,35.7,30.52,NNE,12,15.0,15.0,92,0.00,CLR,,0.17,WeatherDisplay:10.37,2013-11-23 15:49:00,
2013-11-23 09:54:00,37.7,35.6,30.52,NNE,22,13.8,13.8,92,0.00,CLR,,0.17,WeatherDisplay:10.37,2013-11-23 15:54:00,
2013-11-23 09:59:00,37.7,35.6,30.52,North,11,16.1,16.1,92,0.00,CLR,,0.17,WeatherDisplay:10.37,2013-11-23 15:59:00,
2013-11-23 10:04:00,37.7,35.6,30.52,North,355,13.8,13.8,92,0.00,CLR,,0.17,WeatherDisplay:10.37,2013-11-23 16:04:00,
2013-11-23 10:09:00,37.8,35.7,30.52,North,355,15.0,15.0,92,0.00,CLR,,0.17,WeatherDisplay:10.37,2013-11-23 16:09:00,
2013-11-23 10:14:00,37.8,35.7,30.52,North,351,13.8,13.8,92,0.00,CLR,,0.17,WeatherDisplay:10.37,2013-11-23 16:14:00,
2013-11-23 10:19:00,37.8,35.7,30.52,NNW,347,17.3,17.3,92,0.00,CLR,,0.17,WeatherDisplay:10.37,2013-11-23 16:19:00,
2013-11-23 10:24:00,37.9,35.8,30.52,North,9,12.7,12.7,92,0.00,CLR,,0.17,WeatherDisplay:10.37,2013-11-23 16:24:00,
2013-11-23 10:29:00,37.8,35.7,30.52,North,355,16.1,16.1,92,0.00,CLR,,0.17,WeatherDisplay:10.37,2013-11-23 16:29:00,
2013-11-23 10:34:00,37.8,35.7,30.52,North,355,18.4,18.4,92,0.00,CLR,,0.17,WeatherDisplay:10.37,2013-11-23 16:34:00,
2013-11-23 10:39:00,37.9,35.8,30.51,NNW,348,18.4,18.4,92,0.00,CLR,,0.17,WeatherDisplay:10.37,2013-11-23 16:39:00,
2013-11-23 10:44:00,38.0,35.9,30.51,NNE,23,10.0,10.0,92,0.00,CLR,,0.17,WeatherDisplay:10.37,2013-11-23 16:44:00,
2013-11-23 10:49:00,38.1,36.0,30.51,North,355,12.7,12.7,92,0.00,CLR,,0.17,WeatherDisplay:10.37,2013-11-23 16:49:00,
2013-11-23 10:54:00,38.1,36.0,30.51,NNE,21,16.1,16.1,92,0.00,CLR,,0.17,WeatherDisplay:10.37,2013-11-23 16:54:00,
2013-11-23 10:59:00,38.2,36.1,30.51,NNE,24,10.4,10.4,92,0.00,CLR,,0.17,WeatherDisplay:10.37,2013-11-23 16:59:00,
2013-11-23 11:04:00,38.3,36.2,30.50,North,355,10.4,10.4,92,0.00,CLR,,0.17,WeatherDisplay:10.37,2013-11-23 17:04:00,
2013-11-23 11:09:00,38.5,36.4,30.50,NNE,21,16.1,16.1,92,0.00,CLR,,0.17,WeatherDisplay:10.37,2013-11-23 17:09:00,
2013-11-23 11:14:00,38.7,36.6,30.50,North,5,11.5,11.5,92,0.00,CLR,,0.17,WeatherDisplay:10.37,2013-11-23 17:14:00,
2013-11-23 11:19:00,38.9,36.8,30.50,North,349,11.0,11.0,92,0.00,CLR,,0.17,WeatherDisplay:10.37,2013-11-23 17:19:00,
2013-11-23 11:24:00,38.9,36.8,30.50,NNE,27,10.4,10.4,92,0.00,CLR,,0.17,WeatherDisplay:10.37,2013-11-23 17:24:00,
2013-11-23 11:29:00,38.8,36.7,30.49,North,360,17.3,17.3,92,0.00,CLR,,0.17,WeatherDisplay:10.37,2013-11-23 17:29:00,
2013-11-23 11:34:00,38.9,36.8,30.49,North,5,11.5,11.5,92,0.00,CLR,,0.17,WeatherDisplay:10.37,2013-11-23 17:34:00,
2013-11-23 11:39:00,39.1,37.0,30.48,NNE,15,16.1,16.1,92,0.00,CLR,,0.17,WeatherDisplay:10.37,2013-11-23 17:39:00,
2013-11-23 11:44:00,39.2,37.1,30.48,NNE,20,10.4,10.4,92,0.00,CLR,,0.17,WeatherDisplay:10.37,2013-11-23 17:44:00,
2013-11-23 11:49:00,39.3,37.2,30.48,North,5,13.8,13.8,92,0.00,CLR,,0.17,WeatherDisplay:10.37,2013-11-23 17:49:00,
2013-11-23 11:54:00,39.5,37.4,30.48,North,355,10.4,10.4,92,0.00,CLR,,0.17,WeatherDisplay:10.37,2013-11-23 17:54:00,
2013-11-23 11:59:00,39.6,37.5,30.48,North,360,7.0,7.0,92,0.00,CLR,,0.17,WeatherDisplay:10.37,2013-11-23 17:59:00,
2013-11-23 12:04:00,39.6,37.5,30.48,North,5,15.0,15.0,92,0.00,CLR,,0.17,WeatherDisplay:10.37,2013-11-23 18:04:00,
2013-11-23 12:09:00,39.7,37.6,30.48,NNE,15,10.4,10.4,92,0.00,CLR,,0.17,WeatherDisplay:10.37,2013-11-23 18:09:00,
2013-11-23 12:14:00,39.8,37.7,30.47,North,360,14.0,14.0,92,0.00,CLR,,0.17,WeatherDisplay:10.37,2013-11-23 18:14:00,
2013-11-23 12:19:00,39.8,37.7,30.47,North,355,12.7,12.7,92,0.00,CLR,,0.17,WeatherDisplay:10.37,2013-11-23 18:19:00,
2013-11-23 12:24:00,39.8,37.7,30.47,North,355,12.7,12.7,92,0.00,CLR,,0.17,WeatherDisplay:10.37,2013-11-23 18:24:00,
2013-11-23 12:29:00,39.9,37.8,30.47,North,11,12.7,12.7,92,0.00,CLR,,0.17,WeatherDisplay:10.37,2013-11-23 18:29:00,
2013-11-23 12:34:00,39.8,37.7,30.46,North,355,17.3,17.3,92,0.00,CLR,,0.17,WeatherDisplay:10.37,2013-11-23 18:34:00,
2013-11-23 12:39:00,39.7,37.6,30.46,NNE,19,13.8,13.8,92,0.00,CLR,,0.17,WeatherDisplay:10.37,2013-11-23 18:39:00,
2013-11-23 12:44:00,39.7,37.3,30.46,North,5,15.0,15.0,91,0.00,CLR,,0.17,WeatherDisplay:10.37,2013-11-23 18:44:00,
2013-11-23 12:49:00,39.6,37.2,30.46,North,10,11.5,11.5,91,0.00,CLR,,0.17,WeatherDisplay:10.37,2013-11-23 18:49:00,
2013-11-23 12:54:00,39.5,37.4,30.46,North,355,18.4,18.4,92,0.00,CLR,,0.17,WeatherDisplay:10.37,2013-11-23 18:54:00,
2013-11-23 12:59:00,39.6,37.2,30.46,North,5,12.7,12.7,91,0.00,CLR,,0.17,WeatherDisplay:10.37,2013-11-23 18:59:00,
2013-11-23 13:04:00,39.7,37.3,30.46,North,5,10.4,10.4,91,0.00,CLR,,0.17,WeatherDisplay:10.37,2013-11-23 19:04:00,
2013-11-23 13:09:00,39.7,37.3,30.46,NNE,14,12.0,12.0,91,0.00,CLR,,0.17,WeatherDisplay:10.37,2013-11-23 19:09:00,
2013-11-23 13:14:00,39.6,37.2,30.46,North,5,15.0,15.0,91,0.00,CLR,,0.17,WeatherDisplay:10.37,2013-11-23 19:14:00,
2013-11-23 13:19:00,39.5,37.1,30.45,North,5,9.2,9.2,91,0.00,CLR,,0.17,WeatherDisplay:10.37,2013-11-23 19:19:00,
2013-11-23 13:24:00,39.6,37.2,30.45,North,5,11.5,11.5,91,0.00,CLR,,0.17,WeatherDisplay:10.37,2013-11-23 19:24:00,
2013-11-23 13:29:00,39.5,37.1,30.45,NNE,13,11.5,11.5,91,0.00,CLR,,0.17,WeatherDisplay:10.37,2013-11-23 19:29:00,
2013-11-23 13:34:00,39.6,37.2,30.44,North,360,11.5,11.5,91,0.00,CLR,,0.17,WeatherDisplay:10.37,2013-11-23 19:34:00,
2013-11-23 13:39:00,39.6,37.2,30.44,NNE,19,9.2,9.2,91,0.00,CLR,,0.17,WeatherDisplay:10.37,2013-11-23 19:39:00,
2013-11-23 13:44:00,39.6,37.2,30.45,NNE,14,12.7,12.7,91,0.00,CLR,,0.17,WeatherDisplay:10.37,2013-11-23 19:44:00,
2013-11-23 13:49:00,39.6,37.2,30.45,North,355,13.0,13.0,91,0.00,CLR,,0.17,WeatherDisplay:10.37,2013-11-23 19:49:00,
2013-11-23 13:54:00,39.7,37.3,30.45,North,355,11.5,11.5,91,0.00,CLR,,0.17,WeatherDisplay:10.37,2013-11-23 19:54:00,
2013-11-23 13:59:00,39.8,37.4,30.44,NNE,19,7.0,7.0,91,0.00,CLR,,0.17,WeatherDisplay:10.37,2013-11-23 19:59:00,
2013-11-23 14:04:00,39.8,37.4,30.44,North,5,16.1,16.1,91,0.00,CLR,,0.17,WeatherDisplay:10.37,2013-11-23 20:04:00,
2013-11-23 14:09:00,39.8,37.4,30.44,North,355,12.7,12.7,91,0.00,CLR,,0.17,WeatherDisplay:10.37,2013-11-23 20:09:00,
2013-11-23 14:15:00,39.8,37.4,30.45,NNE,12,16.1,16.1,91,0.00,CLR,,0.17,WeatherDisplay:10.37,2013-11-23 20:15:00,
2013-11-23 14:20:00,39.9,37.5,30.44,NNE,16,15.0,15.0,91,0.00,CLR,,0.17,WeatherDisplay:10.37,2013-11-23 20:20:00,
2013-11-23 14:25:00,40.0,37.6,30.44,North,360,18.4,18.4,91,0.00,CLR,,0.17,WeatherDisplay:10.37,2013-11-23 20:25:00,
2013-11-23 14:30:00,40.1,37.7,30.44,NNE,18,17.3,17.3,91,0.00,CLR,,0.17,WeatherDisplay:10.37,2013-11-23 20:30:00,
2013-11-23 14:35:00,40.3,37.9,30.44,NNE,18,15.0,15.0,91,0.00,CLR,,0.17,WeatherDisplay:10.37,2013-11-23 20:35:00,
2013-11-23 14:40:00,40.4,38.0,30.44,North,9,10.4,10.4,91,0.00,CLR,,0.17,WeatherDisplay:10.37,2013-11-23 20:40:00,
2013-11-23 14:45:00,40.5,38.1,30.44,North,5,11.5,11.5,91,0.00,CLR,,0.17,WeatherDisplay:10.37,2013-11-23 20:45:00,
2013-11-23 14:50:00,40.5,38.1,30.45,NNE,13,13.8,13.8,91,0.00,CLR,,0.17,WeatherDisplay:10.37,2013-11-23 20:50:00,
2013-11-23 14:55:00,40.4,38.0,30.45,North,5,13.8,13.8,91,0.00,CLR,,0.17,WeatherDisplay:10.37,2013-11-23 20:55:00,
2013-11-23 15:00:00,40.4,38.0,30.45,North,5,12.7,12.7,91,0.00,CLR,,0.17,WeatherDisplay:10.37,2013-11-23 21:00:00,
2013-11-23 15:05:00,40.4,38.0,30.46,North,9,13.8,13.8,91,0.00,CLR,,0.17,WeatherDisplay:10.37,2013-11-23 21:05:00,
2013-11-23 15:10:00,40.3,37.9,30.46,North,350,15.0,15.0,91,0.00,CLR,,0.17,WeatherDisplay:10.37,2013-11-23 21:10:00,
2013-11-23 15:15:00,40.3,37.9,30.46,NNE,30,18.4,18.4,91,0.00,CLR,,0.17,WeatherDisplay:10.37,2013-11-23 21:15:00,
2013-11-23 15:20:00,40.5,38.1,30.46,North,5,19.6,19.6,91,0.00,CLR,,0.17,WeatherDisplay:10.37,2013-11-23 21:20:00,
2013-11-23 15:25:00,40.6,38.2,30.46,North,350,7.0,7.0,91,0.00,CLR,,0.17,WeatherDisplay:10.37,2013-11-23 21:25:00,
2013-11-23 15:30:00,40.6,38.2,30.46,NNE,13,13.0,13.0,91,0.00,CLR,,0.17,WeatherDisplay:10.37,2013-11-23 21:30:00,
2013-11-23 15:35:00,40.7,38.3,30.46,North,360,10.4,10.4,91,0.00,CLR,,0.17,WeatherDisplay:10.37,2013-11-23 21:35:00,
2013-11-23 15:40:00,40.7,38.3,30.46,NNE,17,10.4,10.4,91,0.00,CLR,,0.17,WeatherDisplay:10.37,2013-11-23 21:40:00,
2013-11-23 15:45:00,40.8,38.4,30.46,NNE,14,11.5,11.5,91,0.00,CLR,,0.17,WeatherDisplay:10.37,2013-11-23 21:45:00,
2013-11-23 15:50:00,40.8,38.4,30.46,North,5,12.7,12.7,91,0.00,CLR,,0.17,WeatherDisplay:10.37,2013-11-23 21:50:00,
2013-11-23 15:55:00,40.9,38.5,30.46,North,355,10.4,10.4,91,0.00,CLR,,0.17,WeatherDisplay:10.37,2013-11-23 21:55:00,
2013-11-23 16:00:00,40.9,38.2,30.46,North,9,10.4,10.4,90,0.00,CLR,,0.17,WeatherDisplay:10.37,2013-11-23 22:00:00,
2013-11-23 16:05:00,41.0,38.3,30.46,North,10,11.5,11.5,90,0.00,CLR,,0.17,WeatherDisplay:10.37,2013-11-23 22:05:00,
2013-11-23 16:10:00,41.0,38.3,30.46,North,360,12.7,12.7,90,0.00,CLR,,0.17,WeatherDisplay:10.37,2013-11-23 22:10:00,
2013-11-23 16:15:00,41.0,38.3,30.45,North,5,11.5,11.5,90,0.00,CLR,,0.17,WeatherDisplay:10.37,2013-11-23 22:15:00,
2013-11-23 16:20:00,41.1,38.4,30.46,North,355,11.5,11.5,90,0.00,CLR,,0.17,WeatherDisplay:10.37,2013-11-23 22:20:00,
2013-11-23 16:25:00,41.1,38.4,30.46,NNE,13,9.2,9.2,90,0.00,CLR,,0.17,WeatherDisplay:10.37,2013-11-23 22:25:00,
2013-11-23 16:30:00,41.1,38.4,30.46,NNE,13,6.9,6.9,90,0.00,CLR,,0.17,WeatherDisplay:10.37,2013-11-23 22:30:00,
2013-11-23 16:35:00,41.1,38.4,30.46,North,5,13.8,13.8,90,0.00,CLR,,0.17,WeatherDisplay:10.37,2013-11-23 22:35:00,
2013-11-23 16:40:00,41.1,38.4,30.46,North,5,11.5,11.5,90,0.00,CLR,,0.17,WeatherDisplay:10.37,2013-11-23 22:40:00,
2013-11-23 16:45:00,41.1,38.4,30.46,North,11,6.9,6.9,90,0.00,CLR,,0.17,WeatherDisplay:10.37,2013-11-23 22:45:00,
2013-11-23 16:50:00,41.1,38.4,30.46,NNE,24,11.5,11.5,90,0.00,CLR,,0.17,WeatherDisplay:10.37,2013-11-23 22:50:00,
2013-11-23 16:55:00,41.1,38.4,30.46,North,360,11.5,11.5,90,0.00,CLR,,0.17,WeatherDisplay:10.37,2013-11-23 22:55:00,
2013-11-23 17:00:00,41.2,38.5,30.46,NNE,18,11.5,11.5,90,0.00,CLR,,0.17,WeatherDisplay:10.37,2013-11-23 23:00:00,
2013-11-23 17:05:00,41.3,38.6,30.46,NNE,15,9.2,9.2,90,0.00,CLR,,0.17,WeatherDisplay:10.37,2013-11-23 23:05:00,
2013-11-23 17:09:00,41.2,38.5,30.46,NNE,13,11.5,11.5,90,0.00,CLR,,0.17,WeatherDisplay:10.37,2013-11-23 23:09:00,
2013-11-23 17:14:00,41.3,38.6,30.46,North,9,8.1,8.1,90,0.00,CLR,,0.17,WeatherDisplay:10.37,2013-11-23 23:14:00,
2013-11-23 17:19:00,41.2,38.5,30.46,NNE,14,11.5,11.5,90,0.00,CLR,,0.17,WeatherDisplay:10.37,2013-11-23 23:19:00,
2013-11-23 17:24:00,41.2,38.5,30.47,North,5,6.9,6.9,90,0.00,CLR,,0.17,WeatherDisplay:10.37,2013-11-23 23:24:00,
2013-11-23 17:29:00,41.2,38.5,30.46,North,9,8.1,8.1,90,0.00,CLR,,0.17,WeatherDisplay:10.37,2013-11-23 23:29:00,
2013-11-23 17:34:00,41.1,38.4,30.46,NNE,19,10.4,10.4,90,0.00,CLR,,0.17,WeatherDisplay:10.37,2013-11-23 23:34:00,
2013-11-23 17:39:00,41.1,38.4,30.46,NNE,14,8.1,8.1,90,0.00,CLR,,0.17,WeatherDisplay:10.37,2013-11-23 23:39:00,
2013-11-23 17:44:00,41.1,38.4,30.46,NNE,15,9.2,9.2,90,0.00,CLR,,0.17,WeatherDisplay:10.37,2013-11-23 23:44:00,
2013-11-23 17:49:00,41.1,38.4,30.46,North,355,9.2,9.2,90,0.00,CLR,,0.17,WeatherDisplay:10.37,2013-11-23 23:49:00,
2013-11-23 17:54:00,41.1,38.4,30.46,NNE,21,10.4,10.4,90,0.00,CLR,,0.17,WeatherDisplay:10.37,2013-11-23 23:54:00,
2013-11-23 17:59:00,41.2,38.5,30.46,North,5,5.8,5.8,90,0.00,CLR,,0.17,WeatherDisplay:10.37,2013-11-23 23:59:00,
2013-11-23 18:04:00,41.2,38.8,30.46,North,11,9.2,9.2,91,0.00,CLR,,0.17,WeatherDisplay:10.37,2013-11-24 00:04:00,
2013-11-23 18:09:00,41.2,38.8,30.46,North,9,11.5,11.5,91,0.00,CLR,,0.17,WeatherDisplay:10.37,2013-11-24 00:09:00,
2013-11-23 18:14:00,41.2,38.5,30.46,NNE,15,12.7,12.7,90,0.00,CLR,,0.17,WeatherDisplay:10.37,2013-11-24 00:14:00,
2013-11-23 18:19:00,41.2,38.5,30.46,NNE,21,11.5,11.5,90,0.00,CLR,,0.17,WeatherDisplay:10.37,2013-11-24 00:19:00,
2013-11-23 18:24:00,41.1,38.4,30.46,North,10,11.5,11.5,90,0.00,CLR,,0.17,WeatherDisplay:10.37,2013-11-24 00:24:00,
2013-11-23 18:29:00,41.1,38.4,30.46,North,351,11.5,11.5,90,0.00,CLR,,0.17,WeatherDisplay:10.37,2013-11-24 00:29:00,
2013-11-23 18:34:00,41.1,38.4,30.46,North,5,9.2,9.2,90,0.00,CLR,,0.17,WeatherDisplay:10.37,2013-11-24 00:34:00,
2013-11-23 18:39:00,41.1,38.4,30.47,North,5,12.7,12.7,90,0.00,CLR,,0.17,WeatherDisplay:10.37,2013-11-24 00:39:00,
2013-11-23 18:44:00,41.1,38.4,30.46,NNE,16,11.5,11.5,90,0.00,CLR,,0.17,WeatherDisplay:10.37,2013-11-24 00:44:00,
2013-11-23 18:49:00,41.1,38.7,30.46,North,355,10.4,10.4,91,0.00,CLR,,0.17,WeatherDisplay:10.37,2013-11-24 00:49:00,
2013-11-23 18:54:00,41.2,38.8,30.47,NNE,18,11.5,11.5,91,0.00,CLR,,0.17,WeatherDisplay:10.37,2013-11-24 00:54:00,
2013-11-23 18:59:00,41.2,38.5,30.47,North,11,9.2,9.2,90,0.00,CLR,,0.17,WeatherDisplay:10.37,2013-11-24 00:59:00,
2013-11-23 19:04:00,41.2,38.5,30.47,NNE,22,9.2,9.2,90,0.00,CLR,,0.17,WeatherDisplay:10.37,2013-11-24 01:04:00,
2013-11-23 19:09:00,41.2,38.5,30.47,North,5,10.4,10.4,90,0.00,CLR,,0.17,WeatherDisplay:10.37,2013-11-24 01:09:00,
2013-11-23 19:14:00,41.1,38.4,30.47,NNE,13,9.2,9.2,90,0.00,CLR,,0.17,WeatherDisplay:10.37,2013-11-24 01:14:00,
2013-11-23 19:19:00,41.1,38.4,30.46,North,11,9.2,9.2,90,0.00,CLR,,0.17,WeatherDisplay:10.37,2013-11-24 01:19:00,
2013-11-23 19:24:00,41.1,38.4,30.47,North,355,6.9,6.9,90,0.00,CLR,,0.17,WeatherDisplay:10.37,2013-11-24 01:24:00,
2013-11-23 19:29:00,41.1,38.4,30.47,North,5,6.9,6.9,90,0.00,CLR,,0.17,WeatherDisplay:10.37,2013-11-24 01:29:00,
2013-11-23 19:34:00,41.0,38.3,30.48,North,11,6.9,6.9,90,0.00,CLR,,0.17,WeatherDisplay:10.37,2013-11-24 01:34:00,
2013-11-23 19:39:00,41.0,38.3,30.48,North,5,5.0,5.5,90,0.00,CLR,,0.17,WeatherDisplay:10.37,2013-11-24 01:39:00,
2013-11-23 19:44:00,41.0,38.3,30.48,North,5,3.5,3.5,90,0.00,CLR,,0.17,WeatherDisplay:10.37,2013-11-24 01:44:00,
2013-11-23 19:49:00,40.9,38.2,30.48,North,5,5.0,5.0,90,0.00,CLR,,0.17,WeatherDisplay:10.37,2013-11-24 01:49:00,
2013-11-23 19:54:00,40.9,38.2,30.48,North,5,6.9,6.9,90,0.00,CLR,,0.17,WeatherDisplay:10.37,2013-11-24 01:54:00,
2013-11-23 19:59:00,41.0,38.3,30.48,NNE,13,9.2,9.2,90,0.00,CLR,,0.17,WeatherDisplay:10.37,2013-11-24 01:59:00,
2013-11-23 20:04:00,41.0,39.7,30.48,NNE,13,4.6,4.6,95,0.00,CLR,,0.17,WeatherDisplay:10.37,2013-11-24 02:04:00,
2013-11-23 20:09:00,41.1,38.4,30.48,North,9,4.6,5.0,90,0.00,CLR,,0.17,WeatherDisplay:10.37,2013-11-24 02:09:00,
2013-11-23 20:14:00,41.1,38.4,30.49,NNE,16,6.0,6.0,90,0.00,CLR,,0.17,WeatherDisplay:10.37,2013-11-24 02:14:00,
2013-11-23 20:19:00,41.1,38.4,30.49,North,11,4.6,4.6,90,0.00,CLR,,0.17,WeatherDisplay:10.37,2013-11-24 02:19:00,
2013-11-23 20:24:00,41.1,38.4,30.49,NNE,12,5.8,5.8,90,0.00,CLR,,0.17,WeatherDisplay:10.37,2013-11-24 02:24:00,
2013-11-23 20:29:00,41.1,38.4,30.49,North,11,3.5,3.5,90,0.00,CLR,,0.17,WeatherDisplay:10.37,2013-11-24 02:29:00,
2013-11-23 20:34:00,41.2,38.5,30.49,North,350,6.9,6.9,90,0.00,CLR,,0.17,WeatherDisplay:10.37,2013-11-24 02:34:00,
2013-11-23 20:39:00,41.2,38.2,30.50,North,350,3.5,0.0,89,0.00,CLR,,0.17,WeatherDisplay:10.37,2013-11-24 02:39:00,
2013-11-23 20:44:00,41.1,38.1,30.49,North,360,0.0,0.0,89,0.00,CLR,,0.17,WeatherDisplay:10.37,2013-11-24 02:44:00,
2013-11-23 20:49:00,41.0,38.0,30.49,North,5,4.6,4.6,89,0.00,CLR,,0.17,WeatherDisplay:10.37,2013-11-24 02:49:00,
2013-11-23 20:54:00,41.0,38.0,30.50,North,5,0.0,0.0,89,0.00,CLR,,0.17,WeatherDisplay:10.37,2013-11-24 02:54:00,
2013-11-23 20:59:00,41.0,38.0,30.50,North,5,2.0,2.0,89,0.00,CLR,,0.17,WeatherDisplay:10.37,2013-11-24 02:59:00,
2013-11-23 21:04:00,40.9,37.9,30.50,North,5,4.6,4.6,89,0.00,,,0.17,WeatherDisplay:10.37,2013-11-24 03:04:00,
2013-11-23 21:09:00,40.8,37.8,30.50,North,5,5.8,5.8,89,0.00,,,0.17,WeatherDisplay:10.37,2013-11-24 03:09:00,
2013-11-23 21:14:00,40.7,37.7,30.50,North,5,2.3,2.3,89,0.00,,,0.17,WeatherDisplay:10.37,2013-11-24 03:14:00,
2013-11-23 21:19:00,40.6,37.6,30.50,North,5,4.6,4.6,89,0.00,,,0.17,WeatherDisplay:10.37,2013-11-24 03:19:00,
2013-11-23 21:24:00,40.6,37.6,30.50,North,5,4.6,4.6,89,0.00,,,0.17,WeatherDisplay:10.37,2013-11-24 03:24:00,
2013-11-23 21:29:00,40.5,37.5,30.50,North,5,4.6,4.6,89,0.00,,,0.17,WeatherDisplay:10.37,2013-11-24 03:29:00,
2013-11-23 21:34:00,40.4,37.4,30.50,North,5,0.0,0.0,89,0.00,,,0.17,WeatherDisplay:10.37,2013-11-24 03:34:00,
2013-11-23 21:39:00,40.3,37.3,30.51,North,5,4.6,4.6,89,0.00,,,0.17,WeatherDisplay:10.37,2013-11-24 03:39:00,
2013-11-23 21:44:00,40.3,37.3,30.52,North,5,3.5,3.5,89,0.00,,,0.17,WeatherDisplay:10.37,2013-11-24 03:44:00,
2013-11-23 21:49:00,40.3,37.3,30.51,North,5,3.5,3.5,89,0.00,,,0.17,WeatherDisplay:10.37,2013-11-24 03:49:00,
2013-11-23 21:54:00,40.2,37.2,30.51,North,5,8.1,8.1,89,0.00,,,0.17,WeatherDisplay:10.37,2013-11-24 03:54:00,
2013-11-23 21:59:00,40.1,37.1,30.51,North,5,5.8,5.8,89,0.00,,,0.17,WeatherDisplay:10.37,2013-11-24 03:59:00,
2013-11-23 22:04:00,40.1,37.4,30.51,North,5,4.6,4.6,90,0.00,CLR,,0.17,WeatherDisplay:10.37,2013-11-24 04:04:00,
2013-11-23 22:09:00,40.0,37.0,30.50,North,5,6.9,6.9,89,0.00,CLR,,0.17,WeatherDisplay:10.37,2013-11-24 04:09:00,
2013-11-23 22:14:00,39.8,36.8,30.50,North,9,9.2,9.2,89,0.00,CLR,,0.17,WeatherDisplay:10.37,2013-11-24 04:14:00,
2013-11-23 22:19:00,39.7,36.7,30.50,NNE,12,9.2,9.2,89,0.00,CLR,,0.17,WeatherDisplay:10.37,2013-11-24 04:19:00,
2013-11-23 22:24:00,39.7,36.7,30.50,North,5,10.4,10.4,89,0.00,CLR,,0.17,WeatherDisplay:10.37,2013-11-24 04:24:00,
2013-11-23 22:29:00,39.7,36.7,30.51,North,9,10.0,10.0,89,0.00,CLR,,0.17,WeatherDisplay:10.37,2013-11-24 04:29:00,
2013-11-23 22:34:00,39.6,36.6,30.50,North,10,9.2,9.2,89,0.00,CLR,,0.17,WeatherDisplay:10.37,2013-11-24 04:34:00,
2013-11-23 22:39:00,39.5,36.5,30.50,North,11,6.0,6.0,89,0.00,CLR,,0.17,WeatherDisplay:10.37,2013-11-24 04:39:00,
2013-11-23 22:44:00,39.4,36.4,30.49,NNE,12,10.4,10.4,89,0.00,CLR,,0.17,WeatherDisplay:10.37,2013-11-24 04:44:00,
2013-11-23 22:49:00,39.3,36.3,30.49,NNE,15,9.2,9.2,89,0.00,CLR,,0.17,WeatherDisplay:10.37,2013-11-24 04:49:00,
2013-11-23 22:54:00,39.3,36.3,30.49,NNE,19,5.8,5.8,89,0.00,CLR,,0.17,WeatherDisplay:10.37,2013-11-24 04:54:00,
2013-11-23 22:59:00,39.4,36.4,30.49,North,10,5.8,5.8,89,0.00,CLR,,0.17,WeatherDisplay:10.37,2013-11-24 04:59:00,
2013-11-23 23:01:00,39.4,36.4,30.49,North,9,5.0,5.0,89,0.00,CLR,,0.17,WeatherDisplay:10.37,2013-11-24 05:01:00,
2013-11-23 23:02:00,39.4,36.4,30.49,North,9,10.4,10.4,89,0.00,CLR,,0.17,WeatherDisplay:10.37,2013-11-24 05:02:00,
2013-11-23 23:07:00,39.5,36.5,30.49,NNE,13,6.9,6.9,89,0.00,CLR,,0.17,WeatherDisplay:10.37,2013-11-24 05:07:00,
2013-11-23 23:12:00,39.5,36.2,30.49,NNE,13,5.8,5.8,88,0.00,CLR,,0.17,WeatherDisplay:10.37,2013-11-24 05:12:00,
2013-11-23 23:17:00,39.5,36.2,30.49,NNE,15,6.0,6.0,88,0.00,CLR,,0.17,WeatherDisplay:10.37,2013-11-24 05:17:00,
2013-11-23 23:22:00,39.5,36.2,30.49,North,9,6.0,6.0,88,0.00,CLR,,0.17,WeatherDisplay:10.37,2013-11-24 05:22:00,
2013-11-23 23:27:00,39.5,36.2,30.50,North,10,8.1,8.1,88,0.00,CLR,,0.17,WeatherDisplay:10.37,2013-11-24 05:27:00,
2013-11-23 23:32:00,39.5,36.2,30.49,North,11,4.6,4.6,88,0.00,CLR,,0.17,WeatherDisplay:10.37,2013-11-24 05:32:00,
2013-11-23 23:37:00,39.4,35.9,30.50,NNE,14,3.5,3.5,87,0.00,CLR,,0.17,WeatherDisplay:10.37,2013-11-24 05:37:00,
2013-11-23 23:42:00,39.4,35.9,30.49,NNE,15,5.8,5.8,87,0.00,CLR,,0.17,WeatherDisplay:10.37,2013-11-24 05:42:00,
2013-11-23 23:47:00,39.4,35.9,30.49,NNE,20,4.6,0.0,87,0.00,CLR,,0.17,WeatherDisplay:10.37,2013-11-24 05:47:00,
2013-11-23 23:52:00,39.3,35.8,30.49,North,5,8.0,8.0,87,0.00,CLR,,0.17,WeatherDisplay:10.37,2013-11-24 05:52:00,
2013-11-23 23:57:00,39.3,35.8,30.49,North,10,6.9,6.9,87,0.00,CLR,,0.17,WeatherDisplay:10.37,2013-11-24 05:57:00,
2013-11-23 23:58:00,39.3,35.8,30.49,North,10,5.8,5.8,87,0.00,CLR,,0.17,WeatherDisplay:10.37,2013-11-24 05:58:00,